Regional Weather Roundup
Issued by NWS

Home | Current Version | Previous Version | Graphics & Text | Print | Product List | Glossary On
Versions: 1 2 3 4 5 6 7 8 9 10 11 12 13 14 15 16 17 18 19 20 21 22 23 24 25 26 27 28 29 30 31 32 33 34 35 36 37 38 39 40 41 42 43 44 45 46 47 48 49
000
ASUS45 KBOI 040810
RWRID
WEATHER ROUNDUP FOR IDAHO
NATIONAL WEATHER SERVICE BOISE ID
200 AM MDT MON MAY 04 2015

NOTE: "FAIR" INDICATES FEW OR NO CLOUDS BELOW 12000 FEET
WITH NO SIGNIFICANT WEATHER AND/OR OBSTRUCTIONS TO VISIBILITY

IDZ012-014-040900-
SOUTHWEST IDAHO


CITY           SKY/WX    TMP DP  RH WIND       PRES   REMARKS
BOISE          CLEAR     55  30  38 S6        29.84R
CALDWELL       CLEAR     54  32  43 W8        29.85R
MOUNTAIN HOME  CLEAR     55  30  38 CALM      29.85R
$$

IDZ016-017-040900-
SOUTHCENTRAL IDAHO


CITY           SKY/WX    TMP DP  RH WIND       PRES   REMARKS
BURLEY         PTCLDY    52  42  69 CALM      29.90R
JEROME         PTCLDY    53  39  59 NE9       29.90R
TWIN FALLS     PTCLDY    56  40  55 S13       29.88S
$$

IDZ019>023-040900-
SOUTHEAST IDAHO


CITY           SKY/WX    TMP DP  RH WIND       PRES   REMARKS
IDAHO FALLS    PTCLDY    43  40  89 NW3       29.96S
POCATELLO      CLEAR     51  36  56 CALM      29.93S
REXBURG        CLEAR     45  38  76 CALM      29.98R
$$

IDZ006-010-011-018-031-032-040900-
CENTRAL IDAHO MOUNTAINS


CITY           SKY/WX    TMP DP  RH WIND       PRES   REMARKS
MCCALL         CLEAR     38  27  64 NE5       29.93S WCI  34
HAILEY         CLEAR     45  34  65 NW6       29.99S
STANLEY          N/A     33  24  69 CALM      30.02S
SALMON         PTCLDY    43  34  70 CALM      29.92S
CHALLIS        PTCLDY    46  32  58 S3        29.95R
$$

IDZ002-004-006-007-026-040900-
NORTHERN IDAHO


CITY           SKY/WX    TMP DP  RH WIND       PRES   REMARKS
LEWISTON       CLEAR     53  28  38 CALM      29.86S
LOWELL           N/A     44  37  76 N3        29.93R
COEUR D`ALENE  CLEAR     37  28  70 CALM      29.91S
MULLAN PASS    CLEAR     45  18  34 SE5       29.96F
$$



USA.gov is the U.S. government's official web portal to all federal, state and local government web resources and services.